Location: Arboyeti
(42.1122°N, 44.6017°E)
Time: 20:16:39
(UTC+00:00)

Cosmos 2322 Rocket - Pass Details

Date: 19 April 2021
Orbit: 831 x 852 km, 71.0° (Epoch: 17 May)

Event Time Altitude Azimuth Distance (km) Brightness Sun altitude
Rises 16:14:57 0° 329° (NNW) 3,425 6.3 -5.7°
Reaches altitude 10° 16:17:31 10° 323° (NW) 2,487 5.7 -6.1°
Maximum altitude 16:22:52 43° 254° (WSW) 1,177 3.5 -7.0°
Drops below altitude 10° 16:28:12 10° 184° (S) 2,471 4.4 -8.0°
Sets 16:30:45 0° 177° (S) 3,401 5.1 -8.4°
